Temperature
23 23 23 23 20 18 19 22 24 24 24 23 23 23 23 23 23 22 24 23 23 23 22 22 22 22 22 22 22 21 21 21 21 20 20 20 20 20 20 19 19 19 19 19 19 19 19 19 18
23 23 23 23 19 18 19 23 24 24 25 24 24 23 23 23 23 23 23 23 23 23 22 22 22 22 22 22 21 21 21 21 20 20 20 20 20 19 19 19 19 19 19 19 19 19 19 18 18
23 23 23 19 18 18 20 23 24 25 26 25 23 22 22 23 23 23 24 23 23 23 22 22 22 22 22 21 21 21 21 20 20 20 20 19 19 19 19 19 19 19 19 19 19 19 19 18 18
22 23 22 18 19 20 22 23 24 25 25 25 23 21 22 23 24 24 23 23 23 22 22 22 22 22 21 21 21 21 20 20 20 20 19 19 19 19 19 19 19 19 19 19 19 19 18 18 18
22 22 19 18 19 21 23 24 25 24 25 25 23 21 20 23 24 24 23 22 22 22 22 22 21 21 21 21 21 20 20 20 20 19 19 19 19 19 19 19 19 19 19 19 18 18 18 18 18
21 19 17 17 19 22 23 25 25 24 25 24 22 20 20 21 23 23 22 22 22 22 22 21 21 21 21 21 21 20 20 20 19 19 19 19 19 19 19 19 18 18 18 18 18 18 18 18 18
20 17 17 18 20 21 23 25 24 24 24 24 23 20 20 20 22 22 22 21 21 21 21 21 21 21 21 20 20 20 20 19 19 19 19 19 19 19 19 19 18 18 18 18 18 18 18 18 18
21 17 18 18 20 21 23 24 25 24 24 24 23 20 20 21 21 21 21 21 21 21 21 21 21 20 20 20 20 20 19 19 19 19 19 19 19 19 19 18 18 18 18 18 18 18 18 18 18
21 16 16 18 20 21 23 23 24 24 24 23 23 23 22 21 20 20 20 20 20 20 21 21 21 20 20 20 20 19 19 19 19 19 19 19 18 18 18 18 18 18 18 18 18 18 18 18 18
20 15 17 19 21 21 23 23 24 23 22 22 22 22 22 21 20 20 20 20 20 21 21 21 21 20 20 20 19 19 19 19 19 19 19 19 18 18 18 18 18 18 18 18 18 18 18 18 18
19 17 19 20 23 23 23 24 24 23 21 22 22 22 21 21 20 20 20 20 21 21 21 21 21 20 20 20 20 19 19 19 19 19 19 18 18 18 18 18 18 18 18 18 18 18 18 18 18
19 19 21 22 24 24 23 24 24 24 24 24 24 23 22 21 20 20 20 20 21 21 21 21 21 20 20 20 20 20 19 19 19 19 19 18 18 18 18 18 18 18 18 18 18 18 18 18 18
19 20 22 23 24 24 24 23 24 24 25 24 24 23 23 22 21 21 21 21 21 21 21 21 20 20 20 20 20 20 20 19 19 19 19 18 18 18 18 18 18 18 18 18 18 18 18 18 18
20 21 22 23 23 24 23 23 23 24 25 24 24 23 23 23 22 21 21 21 21 21 21 21 20 20 20 20 20 20 20 19 19 19 19 18 18 18 18 18 18 18 18 18 18 18 17 17 17
21 20 19 21 22 23 23 22 22 25 25 24 24 23 23 23 22 21 21 21 21 21 21 21 20 20 20 20 20 20 19 19 19 19 19 18 18 18 18 18 18 18 18 17 17 17 17 17 17
18 19 18 19 21 23 22 20 21 24 24 24 23 23 23 22 22 22 22 22 21 21 21 21 20 20 20 20 20 19 19 19 19 19 19 18 18 18 18 18 18 18 17 17 17 17 17 17 17
17 17 18 19 21 21 21 20 21 23 23 22 22 22 22 22 22 21 22 22 21 21 21 21 20 20 20 20 19 19 19 19 19 19 19 18 18 18 18 18 18 18 18 17 17 17 17 17 17
16 17 18 19 20 21 20 19 20 21 21 20 20 20 21 21 21 21 22 22 21 21 21 20 20 20 20 19 19 19 19 19 18 18 18 18 18 18 18 18 18 18 17 17 17 17 17 17 16
18 18 18 20 21 20 19 19 18 18 18 18 18 18 18 18 19 21 21 21 21 21 20 19 20 20 20 19 19 19 18 18 18 18 18 18 18 18 18 18 17 17 17 17 17 17 16 16 16
19 19 18 20 21 21 18 18 17 17 17 17 17 16 16 17 18 19 20 20 20 20 19 19 19 20 19 19 19 19 19 18 18 18 18 18 17 17 17 17 17 17 17 16 16 16 16 16 15
20 19 19 20 21 20 19 17 17 16 16 16 15 15 16 16 17 18 18 19 19 19 18 18 19 19 19 19 19 19 18 18 18 17 17 17 17 17 17 17 17 17 16 16 16 16 16 15 15
19 20 21 21 19 18 19 16 16 16 15 15 14 14 14 15 16 16 17 18 17 18 18 18 18 18 18 18 18 18 18 18 17 17 17 17 17 17 17 16 16 16 16 15 15 15 15 15 15
20 20 20 20 19 18 18 16 16 16 15 14 14 13 13 14 14 15 15 16 17 17 17 17 17 18 18 18 18 18 17 17 17 17 16 16 16 16 16 16 15 15 15 15 15 15 15 14 14
21 20 19 18 16 17 18 17 16 15 15 14 13 13 13 13 13 14 14 15 15 16 16 16 16 16 17 17 17 17 17 17 16 16 16 15 15 15 15 15 14 14 14 14 14 14 14 14 13
20 17 16 16 15 16 17 17 15 15 15 14 13 12 12 12 12 13 13 14 14 14 15 15 15 15 16 16 16 16 16 16 15 15 15 15 14 14 14 14 14 13 13 13 13 13 13 13 12
18 17 16 16 16 16 16 16 15 14 13 13 12 11 11 11 11 12 12 12 12 13 13 14 14 14 14 14 14 14 15 14 14 14 14 13 13 13 12 12 12 12 12 12 12 12 11 11 11
19 18 16 16 16 15 15 15 14 14 13 12 12 11 11 11 10 10 11 11 11 12 12 12 12 12 13 13 13 13 13 13 13 13 12 12 11 11 11 11 11 11 10 10 10 10 10 10 9
18 18 15 15 15 15 15 15 15 14 13 12 11 11 10 10 10 10 10 10 10 10 11 11 11 11 11 12 12 12 12 12 11 11 11 10 10 10 10 10 9 9 9 9 9 8 8 8 8
18 18 16 14 14 15 14 14 15 14 13 12 11 10 10 9 9 9 9 9 9 10 10 10 10 10 10 10 10 11 10 10 10 10 9 9 9 9 8 8 8 8 8 7 7 7 7 7 7
18 17 16 15 14 14 14 13 13 12 12 11 10 9 9 9 9 9 9 9 9 9 9 9 9 9 9 9 9 9 9 9 9 8 8 8 7 7 7 7 7 7 7 6 6 6 6 6 6
Wind_Speed
14 12 1 3 5 2 5 6 3 3 2 2 1 3 4 4 5 5 5 18 20 20 22 24 24 24 24 24 23 23 22 22 21 21 21 20 20 19 18 17 17 16 16 15 15 15 15 15 15
8 5 3 4 4 2 6 5 4 5 5 4 1 1 2 3 3 6 9 18 23 21 22 23 25 25 25 25 24 23 22 22 21 20 20 19 19 18 17 16 16 15 15 14 14 13 13 13 13
7 1 2 3 4 7 7 5 4 3 4 5 3 2 3 4 4 5 10 21 21 19 21 24 27 25 25 25 24 23 22 21 21 20 19 19 18 17 16 15 15 14 14 13 12 11 11 11 10
3 5 3 2 9 8 7 6 5 3 0 3 5 2 5 4 4 8 18 21 21 18 21 25 27 26 25 25 25 24 23 22 21 20 19 18 17 16 16 15 14 13 12 12 11 10 9 8 8
4 3 1 5 9 8 8 8 6 4 3 3 6 5 5 8 9 18 19 20 20 16 18 24 26 26 25 25 25 24 23 22 21 20 19 18 17 16 15 14 13 12 11 11 10 8 7 6 6
4 4 3 7 9 8 8 6 4 2 2 2 6 4 2 3 13 18 17 16 17 18 17 21 25 26 25 25 25 24 23 22 22 21 19 18 17 16 15 14 12 11 10 10 9 7 6 5 3
4 3 6 7 7 10 11 4 4 2 1 2 5 3 2 3 9 16 17 15 15 16 16 17 20 22 24 24 24 24 23 22 22 21 20 19 17 16 14 13 12 11 10 9 8 7 6 5 4
6 3 4 5 7 9 7 2 2 4 3 2 5 6 3 5 4 12 15 15 15 15 15 14 17 18 19 21 23 24 23 22 22 21 20 19 17 16 14 13 12 11 10 9 9 8 7 6 6
4 2 6 7 7 9 7 3 4 2 4 4 3 4 7 5 5 11 14 14 14 15 14 14 13 15 17 18 21 22 22 22 21 20 20 18 16 15 14 13 13 12 11 10 9 9 8 8 8
6 5 10 8 8 10 11 7 6 2 2 4 4 4 6 7 10 14 17 17 17 17 15 13 13 13 15 16 17 17 17 18 18 17 17 16 15 15 13 14 14 13 12 11 11 10 9 9 8
6 9 10 11 14 12 10 7 4 6 5 7 11 11 8 9 10 13 16 17 18 18 17 15 14 13 13 10 14 12 13 15 15 17 17 16 14 12 12 11 12 13 12 10 10 10 10 9 9
6 10 11 12 15 12 10 6 4 6 7 9 15 15 12 11 12 13 15 16 16 18 17 17 15 13 11 11 11 11 10 11 12 15 17 14 9 8 9 9 11 11 10 9 9 8 10 10 12
6 10 11 13 14 14 10 8 6 6 5 10 15 16 16 14 12 12 14 17 17 18 18 19 17 16 12 10 9 10 9 11 13 15 17 15 9 6 7 8 10 11 11 9 8 8 7 8 9
8 8 9 10 11 10 9 8 3 7 6 10 13 14 16 17 15 12 13 16 19 19 19 18 18 17 14 12 10 9 11 13 14 14 16 17 12 8 7 6 7 9 11 11 9 7 6 5 5
5 8 11 8 6 5 2 6 6 9 7 10 12 14 15 14 12 13 16 18 19 18 18 17 18 17 17 15 12 10 12 13 11 13 16 16 13 10 8 6 6 8 11 11 8 6 4 2 1
8 6 7 11 7 7 1 8 11 8 8 9 9 12 12 11 13 12 14 14 15 15 17 19 19 17 17 14 11 8 10 11 11 13 15 15 14 12 8 5 6 9 8 6 4 3 2 1 1
5 5 9 12 8 6 4 7 9 5 4 5 5 6 8 7 6 8 11 15 14 13 14 17 16 17 16 14 10 8 8 9 10 12 12 13 14 13 9 5 5 7 4 2 3 2 2 2 1
7 7 9 12 10 7 6 7 5 4 3 1 3 3 5 7 4 4 6 10 11 10 10 13 14 15 14 11 8 6 6 6 7 8 9 12 12 12 9 4 4 5 3 2 2 2 1 1 1
10 10 13 15 11 3 4 3 2 7 9 8 7 8 9 8 7 8 8 7 6 6 6 7 11 12 11 8 7 6 5 5 4 4 7 9 9 9 6 3 2 2 2 2 2 1 1 1 1
10 11 13 12 9 3 4 7 8 10 10 9 9 10 11 11 13 14 13 11 8 9 5 3 5 9 9 8 7 5 5 3 3 3 5 6 5 5 5 4 2 2 1 1 1 1 1 1 1
8 7 8 8 8 4 5 5 7 9 11 13 12 12 12 13 13 12 14 13 11 10 7 4 3 4 5 4 4 4 4 3 3 3 4 5 7 7 7 6 4 3 2 1 1 2 3 3 2
8 9 7 5 4 4 2 2 0 6 10 12 11 12 12 12 12 12 12 13 12 10 10 8 6 6 6 5 5 6 4 3 3 4 5 6 9 9 9 8 7 4 3 2 2 2 0 2 2
9 8 5 3 2 3 2 4 3 4 6 8 10 12 13 13 14 14 13 13 12 11 10 8 8 9 7 7 7 7 5 5 5 7 8 8 8 10 11 10 9 6 5 5 5 4 4 2 1
6 3 6 4 4 2 4 3 3 2 6 8 10 12 13 13 14 14 14 14 14 13 12 10 10 10 10 10 9 8 8 7 8 8 8 7 7 8 11 12 10 9 7 7 7 7 8 6 6
3 5 4 5 4 4 3 3 0 4 8 11 13 12 12 13 14 14 15 15 14 13 12 11 11 11 11 12 12 11 10 10 9 8 9 9 8 8 10 10 10 9 10 10 9 10 10 9 9
3 7 6 3 2 3 4 4 3 9 12 13 13 14 14 14 14 15 15 14 14 14 13 13 13 12 12 13 12 12 12 10 10 11 11 11 9 9 9 11 12 12 13 12 11 10 9 9 10
2 2 8 6 1 1 1 4 4 9 12 13 14 14 14 14 14 15 15 14 14 15 14 13 14 14 14 14 14 15 14 14 14 14 13 11 9 9 12 13 13 13 13 12 10 9 9 9 9
5 3 5 4 3 1 2 2 3 9 12 13 14 14 13 13 13 13 14 14 13 13 13 14 14 15 15 14 14 14 15 14 14 14 14 13 12 11 12 12 11 11 11 11 9 9 8 9 8
3 2 3 4 4 4 1 2 0 10 13 13 13 13 12 12 12 12 12 12 12 13 13 14 14 14 14 14 14 15 14 14 14 13 13 12 11 11 11 10 10 10 10 9 8 8 8 8 8
2 1 4 4 2 3 3 0 4 12 12 14 14 13 12 12 12 12 12 12 12 13 13 13 13 14 13 13 14 15 14 13 13 13 11 10 11 10 10 10 10 10 9 8 8 8 7 7 7
Wind_Direction
319 316 305 75 57 49 252 249 211 165 149 153 178 200 186 182 175 204 164 154 146 150 156 156 151 145 140 135 131 128 124 120 117 114 112 111 110 110 109 109 109 109 108 107 106 104 104 104 104
315 317 27 67 112 239 270 251 206 190 167 131 68 253 247 221 182 133 136 153 148 149 154 156 153 148 143 139 136 134 131 127 124 121 118 117 116 115 114 114 113 112 112 110 109 107 105 103 103
309 262 81 96 180 198 234 262 244 218 152 121 102 340 291 206 156 147 150 147 144 148 153 156 154 150 146 143 141 139 136 133 130 127 125 123 122 120 119 118 118 117 116 115 113 111 108 105 102
2 28 48 149 238 235 227 259 257 223 234 96 103 34 304 260 165 139 139 145 143 148 153 156 154 152 149 146 145 144 142 139 136 133 131 130 128 126 125 125 125 124 123 122 120 117 114 110 105
59 82 360 264 255 261 267 263 236 200 171 131 123 132 303 316 131 132 139 146 145 145 150 156 155 153 151 149 148 148 147 144 141 139 137 136 134 133 132 133 133 132 132 131 129 127 124 120 115
45 83 177 249 267 275 279 261 222 194 183 105 98 105 287 276 140 139 141 144 146 146 149 155 157 155 154 152 152 151 150 148 146 144 143 142 141 140 140 140 141 142 142 142 143 144 144 144 141
135 139 216 241 271 280 278 265 192 177 164 105 109 91 297 231 161 143 141 141 145 146 148 153 158 158 157 155 155 154 154 152 150 149 148 148 148 148 149 149 151 153 155 157 160 165 173 182 192
155 140 249 254 267 274 279 271 221 170 170 136 116 134 215 233 167 138 135 141 145 147 150 154 156 157 157 158 159 158 157 155 154 154 153 154 155 156 158 160 163 166 169 173 177 185 196 207 220
128 122 247 251 255 267 282 291 275 211 144 137 138 177 204 218 161 145 139 141 148 151 154 156 156 156 156 158 162 161 160 159 157 159 159 158 160 163 168 173 176 179 183 187 193 201 211 223 235
138 190 237 234 241 260 277 265 239 201 174 159 154 166 169 180 176 165 158 157 159 160 161 160 159 157 157 161 159 160 161 161 160 163 163 164 167 172 178 186 189 190 194 199 205 213 223 234 245
188 212 242 253 256 255 267 268 219 173 216 193 174 171 176 184 183 175 167 166 166 165 164 165 163 162 163 157 157 160 160 163 165 168 170 171 173 183 190 192 199 201 203 209 216 222 228 235 244
228 249 243 251 257 257 249 239 222 203 219 182 170 165 177 191 194 182 173 173 168 169 170 167 167 165 165 156 162 163 163 169 173 178 179 177 180 190 194 193 198 200 205 210 220 225 231 236 243
262 260 261 256 258 252 247 232 215 229 212 154 157 164 177 193 201 194 178 176 173 175 173 171 170 169 165 159 167 170 172 178 181 185 190 186 184 187 190 195 197 203 208 213 222 228 234 238 242
256 270 281 274 265 256 244 247 203 238 198 162 168 177 187 192 195 191 180 178 179 178 175 174 173 171 166 169 174 175 180 182 185 189 195 194 191 188 187 192 196 203 207 214 219 223 231 236 232
307 321 315 296 273 262 250 280 243 234 211 191 185 186 195 194 197 195 187 182 181 179 175 176 175 172 171 175 179 177 182 182 187 192 196 197 194 190 188 190 195 202 205 207 208 210 211 208 205
352 345 309 294 292 283 203 263 272 256 215 208 198 188 190 189 189 189 185 181 182 178 174 179 178 173 173 176 177 175 180 181 188 191 195 196 195 192 179 179 189 193 189 181 177 185 180 190 174
351 306 288 294 283 269 230 250 277 278 202 213 205 187 182 173 168 177 178 179 178 176 174 178 173 172 173 172 173 173 175 179 186 187 189 193 195 192 180 178 182 180 170 166 184 185 186 195 201
260 270 280 280 280 260 235 247 305 352 93 125 91 108 114 110 122 142 159 165 161 151 161 178 167 170 169 164 158 159 166 172 175 178 184 189 193 187 176 170 168 162 155 172 176 176 148 190 207
247 264 274 280 286 279 228 215 25 45 66 67 67 79 79 77 69 70 79 92 107 106 127 173 166 164 162 160 160 163 170 170 162 163 169 182 184 178 165 150 142 140 163 177 176 155 164 216 173
254 264 275 289 306 341 97 92 66 61 69 72 74 75 75 68 58 60 64 63 71 85 89 103 164 161 164 169 168 164 155 145 138 116 103 117 122 126 129 113 126 124 129 125 148 163 178 198 166
272 256 265 285 322 14 89 56 64 64 69 67 64 67 69 71 69 66 66 58 53 61 58 65 85 112 118 135 131 116 102 89 88 85 86 76 95 97 97 102 99 102 130 161 196 173 176 202 209
273 264 267 295 338 303 81 140 79 92 71 64 61 62 63 65 68 69 70 67 56 49 50 41 49 66 77 95 116 123 131 134 118 103 88 70 66 70 73 76 74 67 63 71 66 76 108 184 209
255 265 277 277 257 305 351 128 226 123 92 77 73 72 67 64 65 65 66 69 65 54 50 44 48 52 62 76 96 108 104 112 106 98 91 77 63 60 63 67 68 63 56 51 49 51 55 65 128
270 337 351 21 68 309 268 152 231 180 146 117 90 76 73 70 67 63 60 60 60 56 52 44 48 51 56 66 69 86 95 100 104 102 98 82 68 58 56 64 67 66 64 59 56 56 58 59 63
23 79 23 356 12 269 318 100 334 90 109 111 102 87 75 70 67 62 58 55 57 57 57 60 58 57 58 64 64 70 80 84 87 90 86 82 73 64 55 62 64 63 65 64 63 63 59 59 65
289 140 158 195 227 294 4 65 68 97 95 93 92 88 79 71 68 66 62 60 60 60 58 61 66 64 65 68 68 67 71 76 75 76 80 77 74 70 68 68 67 65 66 67 65 65 62 61 63
270 228 176 147 181 25 26 100 106 111 101 98 93 86 80 74 71 70 66 62 60 60 58 62 69 68 67 70 71 69 70 75 78 77 77 77 76 75 71 71 69 65 64 63 65 67 63 61 58
176 184 84 106 144 249 308 148 171 150 125 111 99 93 87 82 76 73 70 67 64 64 64 63 66 69 68 70 74 77 75 76 78 81 80 80 77 74 72 69 68 66 63 61 61 62 58 62 55
1 42 101 118 145 150 217 308 356 140 131 119 110 103 98 92 87 81 77 74 72 69 66 66 66 69 69 70 74 77 77 77 78 79 78 78 75 72 72 70 69 64 60 56 59 58 55 58 52
174 200 147 149 188 139 136 0 74 121 123 122 117 109 102 96 90 87 83 78 75 73 71 69 69 70 71 73 76 76 76 77 77 77 75 75 75 72 70 68 65 62 56 50 51 52 47 49 47
Height
1526 1526 1526 1526 1529 1538 1538 1524 1514 1513 1512 1512 1511 1512 1513 1513 1517 1520 1512 1512 1516 1521 1526 1531 1535 1538 1540 1543 1545 1548 1550 1552 1554 1556 1558 1559 1561 1562 1564 1565 1566 1566 1567 1568 1569 1569 1570 1571 1571
1524 1524 1525 1524 1534 1546 1538 1518 1513 1509 1507 1509 1511 1512 1512 1511 1509 1508 1508 1512 1516 1521 1525 1530 1534 1537 1540 1543 1545 1548 1550 1553 1555 1557 1559 1560 1562 1563 1564 1565 1566 1567 1568 1569 1570 1570 1571 1572 1573
1522 1522 1524 1525 1533 1539 1531 1515 1510 1506 1505 1506 1511 1513 1513 1510 1508 1507 1507 1511 1516 1520 1525 1529 1533 1537 1540 1543 1546 1548 1551 1553 1555 1557 1559 1561 1562 1564 1565 1566 1567 1568 1569 1570 1570 1571 1572 1573 1574
1521 1522 1522 1528 1530 1522 1516 1511 1509 1506 1504 1504 1510 1513 1512 1511 1508 1506 1507 1511 1515 1520 1524 1529 1533 1537 1540 1543 1546 1549 1551 1553 1556 1558 1560 1561 1563 1564 1565 1567 1567 1568 1569 1570 1571 1572 1573 1574 1575
1520 1520 1525 1530 1525 1515 1509 1507 1507 1504 1503 1504 1509 1512 1513 1511 1508 1507 1509 1512 1515 1519 1524 1529 1533 1537 1540 1543 1546 1549 1551 1554 1556 1558 1560 1562 1563 1565 1566 1567 1568 1569 1570 1571 1572 1573 1574 1575 1576
1519 1520 1531 1533 1522 1511 1506 1505 1505 1503 1502 1504 1508 1513 1514 1512 1509 1508 1511 1513 1516 1519 1524 1528 1533 1536 1540 1543 1546 1549 1551 1553 1555 1558 1560 1562 1563 1564 1566 1567 1568 1569 1570 1571 1572 1573 1574 1575 1576
1518 1522 1528 1524 1519 1513 1505 1504 1503 1502 1501 1504 1506 1511 1513 1514 1512 1510 1512 1514 1517 1520 1524 1528 1532 1536 1539 1542 1545 1548 1551 1553 1555 1557 1559 1561 1563 1564 1565 1567 1568 1569 1570 1571 1572 1573 1574 1575 1577
1515 1519 1520 1520 1518 1512 1504 1502 1501 1500 1501 1502 1504 1508 1511 1513 1513 1512 1513 1515 1518 1521 1523 1527 1531 1535 1538 1541 1544 1547 1550 1552 1555 1557 1559 1560 1562 1564 1565 1566 1567 1568 1569 1570 1572 1573 1574 1575 1576
1513 1522 1525 1519 1515 1508 1502 1502 1501 1499 1499 1500 1501 1504 1506 1511 1513 1514 1514 1516 1518 1521 1523 1526 1529 1533 1537 1540 1543 1546 1549 1551 1554 1556 1558 1560 1561 1563 1565 1566 1567 1568 1569 1570 1571 1572 1573 1574 1576
1509 1521 1516 1508 1505 1503 1500 1500 1499 1499 1498 1499 1500 1501 1504 1509 1511 1512 1512 1514 1516 1518 1522 1525 1528 1532 1535 1538 1542 1545 1547 1550 1553 1555 1557 1559 1561 1562 1564 1565 1566 1567 1568 1569 1570 1571 1572 1573 1575
1505 1509 1504 1501 1499 1498 1498 1497 1496 1496 1497 1495 1497 1499 1502 1507 1509 1510 1511 1513 1514 1517 1520 1524 1527 1531 1534 1537 1540 1543 1546 1548 1551 1554 1556 1558 1559 1561 1563 1564 1565 1566 1567 1568 1569 1570 1571 1573 1574
1503 1499 1498 1496 1494 1494 1494 1494 1494 1493 1492 1492 1494 1496 1500 1503 1506 1508 1510 1512 1515 1517 1519 1523 1526 1530 1533 1536 1539 1542 1544 1547 1550 1552 1554 1556 1558 1559 1561 1562 1564 1565 1567 1568 1568 1569 1570 1571 1572
1498 1496 1493 1491 1490 1489 1489 1490 1489 1489 1490 1490 1493 1495 1497 1500 1503 1505 1508 1511 1513 1515 1518 1521 1525 1529 1532 1536 1539 1541 1544 1546 1549 1551 1553 1555 1556 1558 1559 1561 1563 1564 1566 1567 1567 1568 1569 1570 1571
1494 1492 1489 1487 1485 1484 1485 1485 1486 1486 1488 1489 1490 1491 1492 1495 1498 1502 1505 1507 1510 1512 1516 1520 1523 1527 1531 1534 1537 1540 1543 1545 1548 1550 1552 1554 1555 1557 1558 1560 1561 1563 1564 1565 1566 1567 1567 1568 1569
1492 1491 1487 1483 1481 1480 1482 1485 1483 1482 1484 1485 1487 1488 1490 1492 1496 1499 1500 1502 1506 1510 1513 1517 1520 1524 1528 1532 1536 1539 1541 1544 1546 1548 1550 1552 1554 1555 1557 1558 1559 1561 1562 1563 1564 1564 1565 1566 1566
1492 1495 1497 1485 1480 1478 1485 1492 1480 1478 1479 1481 1483 1485 1487 1490 1493 1496 1498 1501 1504 1507 1510 1514 1518 1521 1526 1530 1534 1537 1539 1542 1544 1546 1548 1550 1552 1553 1555 1556 1557 1558 1560 1561 1562 1562 1563 1563 1563
1501 1505 1500 1489 1477 1477 1482 1487 1477 1475 1475 1477 1479 1481 1483 1486 1490 1492 1494 1496 1500 1504 1507 1511 1515 1519 1523 1527 1531 1535 1537 1540 1542 1544 1546 1548 1550 1551 1553 1554 1555 1557 1557 1558 1559 1560 1560 1560 1560
1507 1504 1498 1492 1478 1476 1481 1481 1476 1474 1474 1476 1477 1478 1480 1483 1485 1488 1491 1492 1496 1500 1505 1510 1513 1516 1520 1524 1529 1533 1536 1538 1540 1542 1543 1545 1547 1549 1550 1551 1553 1554 1555 1555 1555 1556 1557 1557 1557
1496 1497 1496 1484 1473 1476 1478 1479 1479 1477 1476 1477 1478 1479 1480 1482 1484 1486 1488 1491 1495 1499 1503 1507 1510 1513 1518 1521 1525 1529 1532 1535 1537 1540 1541 1542 1544 1546 1547 1549 1551 1551 1552 1552 1552 1552 1552 1553 1554
1491 1494 1491 1480 1470 1473 1478 1482 1482 1481 1481 1481 1480 1480 1481 1482 1483 1485 1487 1491 1494 1496 1502 1505 1508 1511 1515 1519 1523 1527 1530 1533 1536 1538 1539 1540 1542 1543 1544 1546 1547 1548 1549 1548 1548 1548 1548 1549 1550
1486 1488 1486 1481 1473 1472 1478 1489 1487 1487 1486 1484 1484 1483 1482 1483 1484 1486 1487 1490 1493 1493 1497 1502 1505 1509 1513 1518 1522 1525 1528 1531 1533 1535 1536 1537 1539 1540 1542 1543 1544 1544 1544 1544 1544 1544 1544 1544 1544
1486 1476 1476 1476 1482 1488 1483 1502 1495 1491 1489 1489 1489 1487 1486 1486 1486 1488 1489 1490 1493 1496 1498 1502 1505 1508 1512 1515 1519 1522 1524 1527 1530 1532 1533 1534 1536 1537 1538 1539 1540 1540 1540 1540 1540 1539 1540 1540 1540
1477 1471 1473 1474 1481 1489 1487 1498 1499 1491 1492 1493 1493 1492 1491 1490 1489 1490 1491 1492 1495 1498 1499 1504 1506 1508 1511 1515 1517 1520 1522 1525 1527 1529 1530 1531 1532 1533 1534 1535 1536 1537 1536 1536 1536 1536 1536 1536 1536
1469 1472 1475 1480 1488 1500 1489 1495 1499 1493 1491 1493 1495 1496 1495 1494 1493 1493 1494 1496 1496 1498 1500 1504 1506 1507 1510 1513 1516 1518 1520 1522 1524 1526 1528 1528 1529 1529 1531 1532 1533 1533 1533 1533 1533 1533 1533 1532 1532
1471 1487 1502 1502 1509 1504 1488 1492 1499 1491 1492 1494 1496 1498 1498 1498 1497 1497 1498 1499 1500 1502 1503 1503 1506 1507 1508 1511 1515 1516 1518 1520 1522 1523 1524 1525 1526 1527 1528 1530 1530 1530 1530 1531 1531 1530 1530 1529 1529
1475 1484 1504 1510 1510 1504 1493 1499 1500 1496 1497 1499 1500 1501 1503 1503 1502 1502 1503 1504 1505 1505 1506 1507 1507 1508 1509 1511 1513 1514 1516 1518 1519 1520 1522 1523 1524 1525 1527 1528 1529 1529 1529 1529 1529 1529 1529 1528 1527
1475 1479 1483 1496 1498 1506 1503 1501 1501 1499 1500 1502 1504 1506 1506 1507 1507 1508 1508 1508 1508 1508 1509 1509 1510 1511 1511 1512 1513 1515 1516 1517 1519 1520 1522 1524 1525 1526 1527 1527 1528 1528 1529 1529 1529 1528 1528 1528 1527
1470 1473 1487 1496 1506 1511 1506 1503 1503 1501 1502 1504 1507 1509 1510 1512 1512 1512 1512 1513 1513 1513 1513 1513 1514 1513 1514 1515 1515 1516 1517 1519 1521 1522 1524 1525 1526 1527 1528 1528 1529 1529 1529 1530 1530 1529 1529 1529 1528
1474 1476 1483 1494 1498 1509 1514 1511 1498 1499 1501 1505 1508 1511 1513 1514 1515 1516 1516 1517 1518 1518 1518 1517 1517 1517 1517 1518 1518 1519 1520 1522 1523 1525 1526 1527 1528 1530 1530 1531 1531 1532 1532 1532 1531 1531 1531 1530 1529
1471 1475 1482 1494 1500 1500 1507 1513 1500 1500 1503 1506 1510 1513 1515 1516 1518 1519 1520 1521 1521 1521 1522 1522 1522 1522 1522 1523 1523 1523 1524 1526 1527 1528 1530 1531 1532 1533 1534 1534 1534 1534 1534 1534 1534 1533 1533 1532 1531